When you browse on this site, cookies collect data to enhance your experience and personalize the content and advertising you see.
Visit our Privacy Policy to learn more. By continuing to use the site, you agree to this use of cookies and data.
  • In United Kingdom
  • List of Countries
  • For 7 days
  • Water Temperature
  • Satellite Maps
  • Weather Map
  • Weather Widgets
  • user-avatar
    Login

    Hourly Weather Syców

    Today, 22 February, Friday

    Time Temperature Precipitation Wind Pressure Humidity
    00:00 +5°C° 0.2 mm 5 mps 749 mmHg 93%
    01:00 +5°C° 0.2 mm 5 mps 749 mmHg 94%
    02:00 +5°C° 0.4 mm 5 mps 750 mmHg 93%
    03:00 +5°C° 0.4 mm 5 mps 750 mmHg 91%
    04:00 +3°C° 0.4 mm 6 mps 751 mmHg 90%
    05:00 +2°C° 0.1 mm 6 mps 752 mmHg 86%
    06:00 -1°C° 0.1 mm 7 mps 753 mmHg 82%
    07:00 -2°C° 0.1 mm 7 mps 754 mmHg 77%
    08:00 -3°C° 0 mm 7 mps 756 mmHg 69%
    09:00 -3°C° 0 mm 7 mps 757 mmHg 61%
    10:00 -3°C° 0 mm 6 mps 759 mmHg 53%
    11:00 -3°C° 0 mm 6 mps 760 mmHg 50%
    12:00 -2°C° 0 mm 6 mps 760 mmHg 46%
    13:00 -2°C° 0 mm 6 mps 761 mmHg 43%
    14:00 -1°C° 0 mm 5 mps 761 mmHg 42%
    15:00 -2°C° 0 mm 5 mps 762 mmHg 42%
    16:00 -2°C° 0 mm 5 mps 762 mmHg 41%
    17:00 -4°C° 0 mm 5 mps 763 mmHg 44%
    18:00 -3°C° 0 mm 4 mps 764 mmHg 47%
    19:00 -4°C° 0 mm 4 mps 764 mmHg 50%
    20:00 -4°C° 0 mm 4 mps 765 mmHg 49%
    21:00 -4°C° 0 mm 3 mps 766 mmHg 48%
    22:00 -4°C° 0 mm 3 mps 766 mmHg 47%
    23:00 -4°C° 0 mm 3 mps 766 mmHg 45%

    Tomorrow, 23 February, Saturday

    Time Temperature Precipitation Wind Pressure Humidity
    00:00 -4°C° 0 mm 3 mps 766 mmHg 44%
    01:00 -3°C° 0 mm 2 mps 767 mmHg 42%
    02:00 -3°C° 0 mm 2 mps 766 mmHg 41%
    03:00 -4°C° 0 mm 2 mps 766 mmHg 41%
    04:00 -4°C° 0 mm 2 mps 766 mmHg 40%
    05:00 -4°C° 0 mm 2 mps 766 mmHg 40%
    06:00 -4°C° 0 mm 2 mps 766 mmHg 40%
    07:00 -4°C° 0 mm 2 mps 767 mmHg 41%
    08:00 -3°C° 0 mm 2 mps 767 mmHg 37%
    09:00 -3°C° 0 mm 2 mps 767 mmHg 33%
    10:00 0°C° 0 mm 1 mps 767 mmHg 30%
    11:00 +1°C° 0 mm 1 mps 767 mmHg 28%
    12:00 +2°C° 0 mm 1 mps 766 mmHg 26%
    13:00 +2°C° 0 mm 1 mps 766 mmHg 24%
    14:00 +2°C° 0 mm 1 mps 766 mmHg 25%
    15:00 +1°C° 0 mm 0 mps 765 mmHg 26%
    16:00 +1°C° 0 mm 0 mps 765 mmHg 27%
    17:00 0°C° 0 mm 0 mps 765 mmHg 30%
    18:00 +1°C° 0 mm 1 mps 765 mmHg 33%
    19:00 0°C° 0 mm 1 mps 765 mmHg 36%
    20:00 0°C° 0 mm 1 mps 765 mmHg 37%
    21:00 0°C° 0 mm 1 mps 765 mmHg 38%
    22:00 -2°C° 0 mm 2 mps 765 mmHg 38%
    23:00 -2°C° 0 mm 2 mps 764 mmHg 39%

    Day after tomorrow, 24 February, Sunday

    Time Temperature Precipitation Wind Pressure Humidity
    00:00 -2°C° 0 mm 2 mps 764 mmHg 39%
    01:00 -2°C° 0 mm 2 mps 764 mmHg 40%
    02:00 -2°C° 0 mm 2 mps 764 mmHg 40%
    03:00 -2°C° 0 mm 2 mps 763 mmHg 39%
    04:00 -2°C° 0 mm 2 mps 763 mmHg 39%
    05:00 -2°C° 0 mm 2 mps 763 mmHg 39%
    06:00 -2°C° 0 mm 2 mps 763 mmHg 38%
    07:00 -2°C° 0 mm 2 mps 763 mmHg 37%
    08:00 -1°C° 0 mm 2 mps 763 mmHg 34%
    09:00 +1°C° 0 mm 2 mps 763 mmHg 32%
    10:00 +2°C° 0 mm 2 mps 763 mmHg 29%
    11:00 +3°C° 0 mm 3 mps 763 mmHg 30%
    12:00 +4°C° 0 mm 3 mps 763 mmHg 31%
    13:00 +5°C° 0 mm 3 mps 762 mmHg 32%
    14:00 +5°C° 0 mm 3 mps 762 mmHg 36%
    15:00 +5°C° 0 mm 2 mps 762 mmHg 41%
    16:00 +5°C° 0 mm 2 mps 762 mmHg 46%
    17:00 +4°C° 0 mm 2 mps 762 mmHg 48%
    18:00 +3°C° 0 mm 2 mps 762 mmHg 51%
    19:00 +2°C° 0 mm 2 mps 762 mmHg 53%
    20:00 +2°C° 0 mm 2 mps 762 mmHg 56%
    21:00 +2°C° 0 mm 2 mps 763 mmHg 58%
    22:00 +1°C° 0 mm 2 mps 763 mmHg 60%
    23:00 +1°C° 0 mm 2 mps 763 mmHg 62%

    25 February, Monday

    Time Temperature Precipitation Wind Pressure Humidity
    00:00 0°C° 0 mm 3 mps 763 mmHg 63%
    01:00 0°C° 0 mm 3 mps 763 mmHg 65%
    02:00 0°C° 0 mm 3 mps 763 mmHg 67%
    03:00 0°C° 0 mm 3 mps 763 mmHg 68%
    04:00 0°C° 0 mm 3 mps 762 mmHg 70%
    05:00 0°C° 0 mm 3 mps 762 mmHg 71%
    06:00 -1°C° 0 mm 3 mps 763 mmHg 73%
    07:00 -1°C° 0 mm 3 mps 763 mmHg 75%
    08:00 +1°C° 0 mm 3 mps 763 mmHg 70%
    09:00 +2°C° 0 mm 3 mps 763 mmHg 66%
    10:00 +4°C° 0 mm 3 mps 763 mmHg 62%
    11:00 +5°C° 0 mm 3 mps 763 mmHg 60%
    12:00 +7°C° 0 mm 3 mps 762 mmHg 59%
    13:00 +8°C° 0 mm 3 mps 762 mmHg 57%
    14:00 +8°C° 0 mm 3 mps 762 mmHg 59%
    15:00 +8°C° 0 mm 3 mps 762 mmHg 60%
    16:00 +8°C° 0 mm 3 mps 761 mmHg 61%
    17:00 +7°C° 0 mm 2 mps 761 mmHg 65%
    18:00 +6°C° 0 mm 2 mps 761 mmHg 69%
    19:00 +5°C° 0 mm 2 mps 762 mmHg 73%
    20:00 +5°C° 0 mm 2 mps 761 mmHg 74%
    21:00 +4°C° 0 mm 2 mps 761 mmHg 74%
    22:00 +4°C° 0 mm 2 mps 761 mmHg 75%
    23:00 +3°C° 0 mm 3 mps 761 mmHg 77%

    26 February, Tuesday

    Time Temperature Precipitation Wind Pressure Humidity
    00:00 +2°C° 0 mm 3 mps 760 mmHg 79%
    01:00 +2°C° 0 mm 3 mps 760 mmHg 82%
    02:00 +2°C° 0 mm 3 mps 759 mmHg 82%
    03:00 +2°C° 0 mm 3 mps 759 mmHg 83%
    04:00 +1°C° 0 mm 4 mps 758 mmHg 84%
    05:00 +1°C° 0 mm 4 mps 758 mmHg 85%
    06:00 +1°C° 0 mm 4 mps 758 mmHg 86%
    07:00 +1°C° 0 mm 4 mps 758 mmHg 87%
    08:00 +2°C° 0 mm 5 mps 757 mmHg 81%
    09:00 +3°C° 0 mm 5 mps 757 mmHg 75%
    10:00 +5°C° 0 mm 5 mps 757 mmHg 69%
    11:00 +6°C° 0 mm 5 mps 757 mmHg 69%
    12:00 +6°C° 0 mm 5 mps 757 mmHg 68%
    13:00 +7°C° 0 mm 5 mps 757 mmHg 68%
    14:00 +7°C° 0 mm 5 mps 757 mmHg 69%
    15:00 +7°C° 0 mm 4 mps 757 mmHg 70%
    16:00 +7°C° 0 mm 4 mps 756 mmHg 72%
    17:00 +6°C° 0 mm 4 mps 757 mmHg 78%
    18:00 +5°C° 0 mm 3 mps 757 mmHg 84%
    19:00 +4°C° 0 mm 3 mps 757 mmHg 90%
    20:00 +3°C° 0 mm 3 mps 757 mmHg 91%
    21:00 +3°C° 0 mm 3 mps 757 mmHg 92%
    22:00 +3°C° 0 mm 3 mps 757 mmHg 93%
    23:00 +2°C° 0 mm 3 mps 757 mmHg 93%

    27 February, Wednesday

    Time Temperature Precipitation Wind Pressure Humidity
    00:00 +2°C° 0 mm 3 mps 757 mmHg 94%
    01:00 +2°C° 0 mm 3 mps 757 mmHg 94%
    02:00 +1°C° 0 mm 3 mps 757 mmHg 93%
    03:00 +2°C° 0 mm 2 mps 757 mmHg 93%
    04:00 +2°C° 0 mm 2 mps 756 mmHg 92%
    05:00 +1°C° 0 mm 2 mps 756 mmHg 91%
    06:00 +1°C° 0 mm 2 mps 756 mmHg 90%
    07:00 +1°C° 0 mm 2 mps 756 mmHg 89%
    08:00 +3°C° 0 mm 2 mps 756 mmHg 83%
    09:00 +4°C° 0 mm 2 mps 756 mmHg 77%
    10:00 +6°C° 0 mm 2 mps 756 mmHg 71%
    11:00 +7°C° 0 mm 3 mps 755 mmHg 68%
    12:00 +9°C° 0 mm 3 mps 755 mmHg 65%
    13:00 +10°C° 0 mm 3 mps 754 mmHg 62%
    14:00 +10°C° 0 mm 4 mps 753 mmHg 65%
    15:00 +10°C° 0 mm 4 mps 753 mmHg 68%
    16:00 +11°C° 0 mm 4 mps 752 mmHg 71%
    17:00 +10°C° 0 mm 4 mps 751 mmHg 77%
    18:00 +9°C° 0 mm 3 mps 751 mmHg 84%
    19:00 +8°C° 0 mm 3 mps 750 mmHg 91%
    20:00 +8°C° 0 mm 3 mps 750 mmHg 91%
    21:00 +7°C° 0 mm 3 mps 749 mmHg 92%
    22:00 +6°C° 0 mm 4 mps 748 mmHg 92%
    23:00 +6°C° 0 mm 4 mps 748 mmHg 92%
    Show more